SBGRSBUL

Guest
Details From SBGR - Sao Paulo - Guarulhos
To SBUL - TEN CEL AV CESAR BOMBONATO
Flight Number -
Tags generated
Created
Modified
Stats Distance 293 nm / 542 km
Max Altitude 34,000 ft / 10,363 m
Waypoints 4
Social Downloads 1
Likes 0
Share VATSIM

Download

Looking for another format? Having issues loading an existing format? Contact us
Advertisement - Login to hide

Notes

Basic altitude profile: - Ascent Rate: 2500ft/min - Ascent Speed: 250kts - Cruise Altitude: 35000ft - Cruise Speed: 420kts - Descent Rate: 1500ft/min - Descent Speed: 250kts Options: - Use NATs: yes - Use PACOTS: yes - Use low airways: yes - Use high airways: yes

Route

SBGR PSN UW54 ABAFT SBUL

ID Type Via Altitude Latitude Longitude Leg Dist Tot Dist Heading (true) Name
O SBGR APT - 0 ft / 0 m -23.43233˚ -46.46968˚ - 0 nm - Sao Paulo - Guarulhos
PSN VOR - 34,000 ft / 10,363 m -21.98450˚ -47.34417˚ 99 nm 99 nm 331° / 331° PIRASSUNUNGA VOR-DME
ABAFT FIX UW54 (AWY-HI) 24,500 ft / 7,468 m -20.40958˚ -47.90858˚ 99 nm 199 nm 341° / 342° -
O SBUL APT - 0 ft / 0 m -18.88284˚ -48.22559˚ 93 nm 292 nm 349° / 349° TEN CEL AV CESAR BOMBONATO

Altitude Profile

Advertisement - Login to hide

Weather


0- 5 10 15 20 25 30 35+ Temperature / ° C

Clouds and Precipitation
Forecast for 2018-05-23 06:00 UTC. Updated 2 hours ago

Ground ~20,000 ft ~40,000 ft Winds

SBGR

Details ICAO SBGR (GRU)
Name Sao Paulo - Guarulhos
Region Brazil
Timezone America/Sao_Paulo (UTC-3.0)
Stats Elevation 2,459 ft / 750 m (AMSL)
Location -23.432333° -46.469675°
Runways 2
Magnetic Variation 21.466° W

METAR

SBGR 230700Z 00000KT 4000 BR NSC 10/10 Q1021

Decode

TAF

TAF TAF SBGR 230200Z 2306/2412 08002KT 3000 BR NSCTX22/2317Z TN08/2409Z PROB40 2307/2312 0600 FG OVC001 BECMG 2313/2315 12005KT CAVOK BECMG 2316/2318 15006KT BECMG 2321/2323 08004KT PROB30 2408/2411 3000 BR BKN002 RMK PGE

Decode

Departure Runways

ID Width Length Bearing (true) Bearing (mag) Surface Threshold Offset Overrun Length
09L 148 ft / 45 m 12,676 ft / 3,864 m 73.61° 95.08° Asphalt 495 ft / 151 m 0 ft / 0 m
09R 148 ft / 45 m 9,950 ft / 3,033 m 73.60° 95.07° Asphalt 0 ft / 0 m 197 ft / 60 m
27L 148 ft / 45 m 9,950 ft / 3,033 m 253.59° 275.06° Asphalt 0 ft / 0 m 197 ft / 60 m
27R 148 ft / 45 m 12,676 ft / 3,864 m 253.60° 275.07° Asphalt 197 ft / 60 m 0 ft / 0 m

SBUL

Details ICAO SBUL (UDI)
Name TEN CEL AV CESAR BOMBONATO
Region Brazil
Timezone America/Sao_Paulo (UTC-3.0)
Stats Elevation 3,094 ft / 943 m (AMSL)
Location -18.882843° -48.225593°
Runways 1
Magnetic Variation 21.309° W

METAR

Not found

TAF

TAF SBUL 230200Z 2306/2318 11005KT CAVOK TN11/2309Z TX27/2317Z BECMG 2310/2312 07006KT BECMG 2315/2317 00000KT RMK PGE

Decode

Destination Runways

ID Width Length Bearing (true) Bearing (mag) Surface Threshold Offset Overrun Length
04 148 ft / 45 m 6,418 ft / 1,956 m 22.56° 43.87° Asphalt 0 ft / 0 m 0 ft / 0 m
22 148 ft / 45 m 6,418 ft / 1,956 m 202.55° 223.86° Asphalt 0 ft / 0 m 0 ft / 0 m

Popular Alternatives